| time (UTC) | temp C | wind direction | speed KPH | gust KPH | rain 1hr cm | rain 24hr cm | rain mn cm | humidity % | barometer mb |
| 20260504110705 | 5 | 128 | 1.6 | 3.2 | 0.00 | 0.00 | 0.00 | 84 | 1015.1 |
| 20260504110201 | 4 | 47 | 1.6 | 3.2 | 0.00 | 0.00 | 0.00 | 87 | 1014.8 |
| 20260504100125 | 1 | 75 | 0.0 | 4.8 | 0.00 | 0.00 | 0.00 | 94 | 1014.5 |
| 20260504081518 | 2 | 46 | 0.0 | 3.2 | 0.00 | 0.00 | 0.00 | 89 | 1014.8 |
| 20260504081013 | 2 | 23 | 0.0 | 4.8 | 0.00 | 0.00 | 0.00 | 89 | 1014.8 |
| 20260504080509 | 2 | 345 | 3.2 | 3.2 | 0.00 | 0.00 | 0.00 | 90 | 1014.7 |
| 20260504050317 | 5 | 27 | 0.0 | 3.2 | 0.00 | 0.00 | 0.00 | 81 | 1014.7 |
| 20260504045814 | 5 | 89 | 0.0 | 3.2 | 0.00 | 0.00 | 0.00 | 79 | 1014.8 |
| 20260504045314 | 6 | 44 | 1.6 | 3.2 | 0.00 | 0.00 | 0.00 | 78 | 1014.9 |
| 20260504044812 | 6 | 53 | 1.6 | 3.2 | 0.00 | 0.00 | 0.00 | 75 | 1014.6 |
| 20260504044309 | 6 | 15 | 0.0 | 3.2 | 0.00 | 0.00 | 0.00 | 74 | 1014.7 |
| 20260504043806 | 6 | 288 | 0.0 | 4.8 | 0.00 | 0.00 | 0.00 | 74 | 1014.7 |
| 20260504043303 | 6 | 328 | 0.0 | 4.8 | 0.00 | 0.00 | 0.00 | 73 | 1014.5 |
| 20260504042801 | 6 | 173 | 0.0 | 3.2 | 0.00 | 0.00 | 0.00 | 74 | 1014.5 |
| 20260504042257 | 6 | 58 | 0.0 | 1.6 | 0.00 | 0.00 | 0.00 | 73 | 1014.4 |
| 20260504041753 | 6 | 39 | 0.0 | 3.2 | 0.00 | 0.00 | 0.00 | 71 | 1014.5 |
| 20260504041249 | 7 | 89 | 1.6 | 4.8 | 0.00 | 0.00 | 0.00 | 71 | 1014.4 |
| 20260504040745 | 7 | 142 | 0.0 | 3.2 | 0.00 | 0.00 | 0.00 | 69 | 1014.5 |
| 20260504040243 | 7 | 103 | 0.0 | 4.8 | 0.00 | 0.00 | 0.00 | 66 | 1014.4 |
| 20260504035739 | 7 | 24 | 1.6 | 3.2 | 0.00 | 0.00 | 0.00 | 65 | 1014.3 |
| 20260504035236 | 8 | 185 | 1.6 | 11.3 | 0.00 | 0.00 | 0.00 | 65 | 1014.4 |
| 20260504034734 | 8 | 10 | 0.0 | 4.8 | 0.00 | 0.00 | 0.00 | 64 | 1014.3 |
| 20260504034231 | 8 | 211 | 1.6 | 4.8 | 0.00 | 0.00 | 0.00 | 65 | 1014.4 |
| 20260504033729 | 7 | 30 | 1.6 | 6.4 | 0.00 | 0.00 | 0.00 | 66 | 1014.4 |
| 20260504033226 | 7 | 143 | 3.2 | 4.8 | 0.00 | 0.00 | 0.00 | 67 | 1014.3 |
| 20260504032723 | 7 | 269 | 0.0 | 4.8 | 0.00 | 0.00 | 0.00 | 66 | 1014.3 |
| 20260504032220 | 7 | 335 | 0.0 | 4.8 | 0.00 | 0.00 | 0.00 | 66 | 1014.2 |
| 20260504031716 | 7 | 125 | 0.0 | 4.8 | 0.00 | 0.00 | 0.00 | 67 | 1014.5 |
| 20260504031214 | 7 | 239 | 0.0 | 6.4 | 0.00 | 0.00 | 0.00 | 68 | 1014.5 |
| 20260504030709 | 7 | 323 | 1.6 | 4.8 | 0.00 | 0.00 | 0.00 | 71 | 1014.3 |
| 20260504030207 | 6 | 196 | 3.2 | 4.8 | 0.00 | 0.00 | 0.00 | 73 | 1014.2 |
| 20260504025703 | 6 | 53 | 0.0 | 3.2 | 0.00 | 0.00 | 0.00 | 72 | 1014.4 |
| 20260504025200 | 6 | 304 | 0.0 | 4.8 | 0.00 | 0.00 | 0.00 | 74 | 1014.3 |
| 20260504024657 | 6 | 197 | 0.0 | 3.2 | 0.00 | 0.00 | 0.00 | 74 | 1014.2 |
| 20260504024153 | 6 | 204 | 1.6 | 4.8 | 0.00 | 0.00 | 0.00 | 73 | 1014.3 |
| 20260504023650 | 6 | 352 | 0.0 | 3.2 | 0.00 | 0.00 | 0.00 | 75 | 1014.2 |
| 20260504023146 | 6 | 152 | 0.0 | 3.2 | 0.00 | 0.00 | 0.00 | 75 | 1014.2 |
| 20260504022643 | 6 | 1 | 1.6 | 3.2 | 0.00 | 0.00 | 0.00 | 75 | 1014.2 |
| 20260504022138 | 6 | 44 | 1.6 | 3.2 | 0.00 | 0.00 | 0.00 | 73 | 1014.3 |
| 20260504021637 | 6 | 60 | 0.0 | 3.2 | 0.00 | 0.00 | 0.00 | 74 | 1014.3 |
| 20260504021133 | 7 | 336 | 0.0 | 3.2 | 0.00 | 0.00 | 0.00 | 71 | 1014.2 |
| 20260504020630 | 6 | 114 | 0.0 | 4.8 | 0.00 | 0.00 | 0.00 | 73 | 1014.2 |
| 20260504020126 | 7 | 28 | 3.2 | 3.2 | 0.00 | 0.00 | 0.00 | 73 | 1014.3 |
| 20260504015623 | 7 | 246 | 1.6 | 3.2 | 0.00 | 0.00 | 0.00 | 71 | 1014.2 |
| 20260504015119 | 6 | 144 | 0.0 | 3.2 | 0.00 | 0.00 | 0.00 | 73 | 1014.1 |
| 20260504014615 | 7 | 45 | 3.2 | 4.8 | 0.00 | 0.00 | 0.00 | 73 | 1014.2 |
| 20260504014113 | 7 | 166 | 0.0 | 4.8 | 0.00 | 0.00 | 0.00 | 73 | 1014.2 |
| 20260504013610 | 7 | 135 | 0.0 | 3.2 | 0.00 | 0.00 | 0.00 | 72 | 1014.1 |
| 20260504013107 | 7 | 62 | 0.0 | 3.2 | 0.00 | 0.00 | 0.00 | 72 | 1014.2 |
| 20260504012604 | 7 | 89 | 0.0 | 4.8 | 0.00 | 0.00 | 0.00 | 70 | 1014.1 |
| 20260504012102 | 7 | 165 | 0.0 | 1.6 | 0.00 | 0.00 | 0.00 | 70 | 1013.9 |
| 20260504011559 | 7 | 218 | 0.0 | 3.2 | 0.00 | 0.00 | 0.00 | 69 | 1013.9 |
| 20260504011055 | 8 | 334 | 3.2 | 4.8 | 0.00 | 0.00 | 0.00 | 66 | 1013.7 |
| 20260504010550 | 8 | 345 | 1.6 | 6.4 | 0.00 | 0.00 | 0.00 | 63 | 1013.8 |
| 20260504010047 | 8 | 18 | 3.2 | 4.8 | 0.00 | 0.00 | 0.00 | 65 | 1013.7 |
| 20260504005543 | 9 | 269 | 0.0 | 4.8 | 0.00 | 0.00 | 0.00 | 60 | 1013.6 |
| 20260504005041 | 10 | 315 | 3.2 | 4.8 | 0.00 | 0.00 | 0.00 | 57 | 1013.8 |
| 20260504004539 | 10 | 49 | 1.6 | 3.2 | 0.00 | 0.00 | 0.00 | 60 | 1013.7 |
| 20260504004036 | 10 | 64 | 1.6 | 3.2 | 0.00 | 0.00 | 0.00 | 55 | 1013.7 |
| 20260504003532 | 10 | 112 | 0.0 | 3.2 | 0.00 | 0.00 | 0.00 | 54 | 1013.8 |
| 20260504003029 | 10 | 70 | 0.0 | 4.8 | 0.00 | 0.00 | 0.00 | 54 | 1013.6 |
| 20260504002525 | 11 | 53 | 3.2 | 3.2 | 0.00 | 0.00 | 0.00 | 53 | 1013.4 |
| 20260504002023 | 11 | 5 | 4.8 | 4.8 | 0.00 | 0.00 | 0.00 | 50 | 1013.5 |
| 20260504001521 | 11 | 359 | 1.6 | 6.4 | 0.00 | 0.00 | 0.00 | 49 | 1013.1 |
| 20260504001016 | 11 | 77 | 0.0 | 4.8 | 0.00 | 0.00 | 0.00 | 51 | 1013.4 |
| 20260504000514 | 12 | 331 | 3.2 | 4.8 | 0.00 | 0.00 | 0.00 | 46 | 1013.3 |
| 20260504000011 | 12 | 96 | 3.2 | 6.4 | 0.00 | 0.00 | 0.00 | 47 | 1013.3 |
| 20260503235509 | 12 | 40 | 0.0 | 8.0 | 0.00 | 0.00 | 0.00 | 46 | 1013.3 |
| 20260503235006 | 13 | 66 | 3.2 | 6.4 | 0.00 | 0.00 | 0.00 | 44 | 1013.1 |
| 20260503234503 | 13 | 128 | 1.6 | 9.7 | 0.00 | 0.00 | 0.00 | 43 | 1013.2 |
| 20260503234002 | 13 | 182 | 4.8 | 11.3 | 0.00 | 0.00 | 0.00 | 43 | 1013.2 |
| 20260503233457 | 13 | 356 | 3.2 | 8.0 | 0.00 | 0.00 | 0.00 | 44 | 1013.1 |
| 20260503232954 | 13 | 51 | 3.2 | 9.7 | 0.00 | 0.00 | 0.00 | 43 | 1013.0 |
| 20260503232451 | 13 | 197 | 4.8 | 8.0 | 0.00 | 0.00 | 0.00 | 41 | 1012.8 |
| 20260503231949 | 13 | 351 | 4.8 | 12.9 | 0.00 | 0.00 | 0.00 | 42 | 1013.0 |
| 20260503231446 | 13 | 7 | 1.6 | 11.3 | 0.00 | 0.00 | 0.00 | 41 | 1012.9 |
| 20260503230942 | 14 | 53 | 4.8 | 11.3 | 0.00 | 0.00 | 0.00 | 41 | 1013.1 |
| 20260503230439 | 14 | 182 | 4.8 | 12.9 | 0.00 | 0.00 | 0.00 | 41 | 1013.0 |
| 20260503225937 | 14 | 98 | 8.0 | 20.9 | 0.00 | 0.00 | 0.00 | 41 | 1013.0 |
| 20260503225433 | 15 | 5 | 1.6 | 8.0 | 0.00 | 0.00 | 0.00 | 40 | 1012.7 |
| 20260503224929 | 15 | 297 | 4.8 | 17.7 | 0.00 | 0.00 | 0.00 | 39 | 1012.8 |
| 20260503224426 | 16 | 265 | 8.0 | 30.6 | 0.00 | 0.00 | 0.00 | 37 | 1012.9 |
| 20260503223924 | 15 | 138 | 1.6 | 8.0 | 0.00 | 0.00 | 0.00 | 40 | 1012.9 |
| 20260503223422 | 15 | 274 | 3.2 | 27.4 | 0.00 | 0.00 | 0.00 | 40 | 1012.8 |
| 20260503222917 | 15 | 81 | 1.6 | 17.7 | 0.00 | 0.00 | 0.00 | 39 | 1013.0 |
| 20260503222415 | 15 | 304 | 9.7 | 11.3 | 0.00 | 0.00 | 0.00 | 38 | 1012.7 |
| 20260503221914 | 15 | 306 | 14.5 | 16.1 | 0.00 | 0.00 | 0.00 | 38 | 1012.9 |
| 20260503221412 | 15 | 16 | 4.8 | 24.1 | 0.00 | 0.00 | 0.00 | 39 | 1012.8 |
| 20260503220908 | 16 | 298 | 9.7 | 20.9 | 0.00 | 0.00 | 0.00 | 36 | 1012.9 |
| 20260503220404 | 16 | 321 | 6.4 | 25.7 | 0.00 | 0.00 | 0.00 | 37 | 1012.9 |
| 20260503215901 | 16 | 259 | 16.1 | 24.1 | 0.00 | 0.00 | 0.00 | 35 | 1012.9 |
| 20260503215358 | 16 | 35 | 4.8 | 17.7 | 0.00 | 0.00 | 0.00 | 37 | 1012.8 |
| 20260503214856 | 16 | 295 | 8.0 | 19.3 | 0.00 | 0.00 | 0.00 | 37 | 1013.0 |
| 20260503214353 | 16 | 27 | 3.2 | 25.7 | 0.00 | 0.00 | 0.00 | 38 | 1012.8 |
| 20260503213850 | 16 | 242 | 19.3 | 30.6 | 0.00 | 0.00 | 0.00 | 36 | 1012.7 |
| 20260503213348 | 17 | 339 | 8.0 | 27.4 | 0.00 | 0.00 | 0.00 | 35 | 1012.7 |
| 20260503212845 | 17 | 11 | 4.8 | 14.5 | 0.00 | 0.00 | 0.00 | 36 | 1012.8 |
| 20260503212343 | 16 | 230 | 3.2 | 12.9 | 0.00 | 0.00 | 0.00 | 35 | 1012.4 |
| 20260503211839 | 16 | 294 | 6.4 | 16.1 | 0.00 | 0.00 | 0.00 | 35 | 1012.7 |
| 20260503211336 | 15 | 28 | 3.2 | 16.1 | 0.00 | 0.00 | 0.00 | 38 | 1012.4 |
| 20260503210831 | 15 | 72 | 8.0 | 14.5 | 0.00 | 0.00 | 0.00 | 38 | 1012.6 |
| 20260503210329 | 15 | 277 | 3.2 | 16.1 | 0.00 | 0.00 | 0.00 | 37 | 1012.6 |
| 20260503205824 | 15 | 33 | 1.6 | 16.1 | 0.00 | 0.00 | 0.00 | 40 | 1012.6 |
| 20260503205321 | 15 | 283 | 6.4 | 24.1 | 0.00 | 0.00 | 0.00 | 36 | 1012.7 |
| 20260503204817 | 14 | 347 | 6.4 | 17.7 | 0.00 | 0.00 | 0.00 | 37 | 1012.6 |
| 20260503204315 | 14 | 261 | 17.7 | 20.9 | 0.00 | 0.00 | 0.00 | 36 | 1012.6 |
| 20260503203812 | 14 | 56 | 11.3 | 20.9 | 0.00 | 0.00 | 0.00 | 37 | 1012.5 |
| 20260503203309 | 14 | 264 | 11.3 | 24.1 | 0.00 | 0.00 | 0.00 | 36 | 1012.7 |
| 20260503202806 | 14 | 199 | 3.2 | 27.4 | 0.00 | 0.00 | 0.00 | 37 | 1012.7 |
| 20260503202304 | 14 | 291 | 6.4 | 32.2 | 0.00 | 0.00 | 0.00 | 35 | 1012.5 |
| 20260503201802 | 15 | 43 | 8.0 | 16.1 | 0.00 | 0.00 | 0.00 | 37 | 1012.6 |
| 20260503201259 | 15 | 169 | 4.8 | 25.7 | 0.00 | 0.00 | 0.00 | 36 | 1012.7 |
| 20260503200756 | 15 | 297 | 14.5 | 20.9 | 0.00 | 0.00 | 0.00 | 35 | 1012.6 |
| 20260503200251 | 15 | 230 | 25.7 | 27.4 | 0.00 | 0.00 | 0.00 | 34 | 1012.9 |
| 20260503195743 | 15 | 323 | 8.0 | 27.4 | 0.00 | 0.00 | 0.00 | 35 | 1012.9 |
| 20260503195240 | 15 | 48 | 8.0 | 37.0 | 0.00 | 0.00 | 0.00 | 36 | 1013.0 |
| 20260503194738 | 15 | 257 | 9.7 | 22.5 | 0.00 | 0.00 | 0.00 | 35 | 1012.6 |
| 20260503194233 | 15 | 11 | 22.5 | 35.4 | 0.00 | 0.00 | 0.00 | 34 | 1012.9 |
| 20260503193729 | 16 | 325 | 6.4 | 16.1 | 0.00 | 0.00 | 0.00 | 33 | 1013.0 |
| 20260503193226 | 15 | 248 | 6.4 | 25.7 | 0.00 | 0.00 | 0.00 | 34 | 1013.1 |
| 20260503192721 | 15 | 331 | 6.4 | 14.5 | 0.00 | 0.00 | 0.00 | 36 | 1013.2 |
| 20260503192217 | 15 | 71 | 6.4 | 32.2 | 0.00 | 0.00 | 0.00 | 35 | 1013.1 |
| 20260503191714 | 15 | 101 | 11.3 | 35.4 | 0.00 | 0.00 | 0.00 | 36 | 1013.3 |
| 20260503191211 | 15 | 297 | 6.4 | 16.1 | 0.00 | 0.00 | 0.00 | 32 | 1013.4 |
| 20260503190708 | 15 | 332 | 4.8 | 29.0 | 0.00 | 0.00 | 0.00 | 33 | 1013.4 |
| 20260503190204 | 15 | 255 | 9.7 | 16.1 | 0.00 | 0.00 | 0.00 | 32 | 1013.3 |
| 20260503185702 | 15 | 72 | 6.4 | 19.3 | 0.00 | 0.00 | 0.00 | 36 | 1013.6 |
| 20260503185156 | 15 | 273 | 16.1 | 37.0 | 0.00 | 0.00 | 0.00 | 35 | 1013.5 |
| 20260503184651 | 15 | 296 | 9.7 | 33.8 | 0.00 | 0.00 | 0.00 | 35 | 1013.5 |
| 20260503184148 | 15 | 311 | 8.0 | 35.4 | 0.00 | 0.00 | 0.00 | 32 | 1013.7 |
| 20260503183644 | 15 | 347 | 6.4 | 11.3 | 0.00 | 0.00 | 0.00 | 36 | 1014.0 |
| 20260503183142 | 15 | 303 | 8.0 | 14.5 | 0.00 | 0.00 | 0.00 | 35 | 1014.0 |
| 20260503182640 | 15 | 281 | 8.0 | 27.4 | 0.00 | 0.00 | 0.00 | 34 | 1014.1 |
| 20260503182139 | 15 | 13 | 8.0 | 20.9 | 0.00 | 0.00 | 0.00 | 39 | 1014.0 |
| 20260503181635 | 13 | 297 | 8.0 | 37.0 | 0.00 | 0.00 | 0.00 | 36 | 1014.1 |
| 20260503181132 | 15 | 330 | 25.7 | 27.4 | 0.00 | 0.00 | 0.00 | 35 | 1014.2 |
| 20260503180629 | 14 | 109 | 11.3 | 38.6 | 0.00 | 0.00 | 0.00 | 38 | 1014.1 |
| 20260503180127 | 13 | 161 | 6.4 | 17.7 | 0.00 | 0.00 | 0.00 | 38 | 1014.3 |
| 20260503175623 | 14 | 19 | 4.8 | 12.9 | 0.00 | 0.00 | 0.00 | 37 | 1014.2 |
| 20260503175120 | 13 | 341 | 8.0 | 17.7 | 0.00 | 0.00 | 0.00 | 40 | 1014.3 |
| 20260503174617 | 13 | 63 | 11.3 | 24.1 | 0.00 | 0.00 | 0.00 | 39 | 1014.6 |
| 20260503174114 | 12 | 298 | 19.3 | 46.7 | 0.00 | 0.00 | 0.00 | 37 | 1014.6 |
| 20260503173609 | 13 | 36 | 3.2 | 17.7 | 0.00 | 0.00 | 0.00 | 40 | 1014.7 |
| 20260503173105 | 12 | 37 | 11.3 | 22.5 | 0.00 | 0.00 | 0.00 | 42 | 1014.7 |
| 20260503172602 | 12 | 87 | 11.3 | 22.5 | 0.00 | 0.00 | 0.00 | 41 | 1014.8 |
| 20260503172059 | 12 | 24 | 9.7 | 19.3 | 0.00 | 0.00 | 0.00 | 42 | 1014.9 |
| 20260503171550 | 11 | 194 | 4.8 | 22.5 | 0.00 | 0.00 | 0.00 | 42 | 1015.2 |
| 20260503171048 | 11 | 53 | 12.9 | 38.6 | 0.00 | 0.00 | 0.00 | 41 | 1015.2 |
| 20260503170544 | 12 | 27 | 6.4 | 29.0 | 0.00 | 0.00 | 0.00 | 40 | 1015.2 |
| 20260503150937 | 10 | 73 | 6.4 | 32.2 | 0.00 | 0.00 | 0.00 | 45 | 1015.9 |
| 20260503150433 | 10 | 30 | 17.7 | 22.5 | 0.00 | 0.00 | 0.00 | 42 | 1015.8 |
| 20260503131326 | 7 | 293 | 4.8 | 9.7 | 0.00 | 0.00 | 0.00 | 58 | 1016.3 |
| 20260503130824 | 7 | 71 | 8.0 | 9.7 | 0.00 | 0.00 | 0.00 | 60 | 1016.3 |
| 20260503130321 | 7 | 300 | 9.7 | 20.9 | 0.00 | 0.00 | 0.00 | 60 | 1016.4 |